Time,TemperatureF,DewpointF,PressureIn,WindDirection,WindDirectionDegrees,WindSpeedMPH,WindSpeedGustMPH,Humidity,HourlyPrecipIn,Conditions,Clouds,dailyrainin,SolarRadiationWatts/m^2,SoftwareType,DateUTC
2013-08-08 00:00:00,67.8,66.6,30.08,SW,214,0.0,4.0,96,0.00,,---,0.00,0.00,VWS V14.01,2013-08-08 04:00:00,
2013-08-08 00:01:00,67.8,66.6,30.08,SE,144,0.0,4.0,96,0.00,,---,0.09,0.00,VWS V14.01,2013-08-08 04:01:00,
2013-08-08 00:02:00,67.8,66.6,30.08,SW,214,0.0,4.0,96,0.00,,---,0.09,0.00,VWS V14.01,2013-08-08 04:02:00,
2013-08-08 00:07:00,67.8,66.6,30.08,SW,221,0.0,4.0,96,0.00,,---,0.00,0.00,VWS V14.01,2013-08-08 04:07:00,
2013-08-08 00:12:00,67.8,66.6,30.08,SSE,152,0.0,4.0,96,0.00,,---,0.00,0.00,VWS V14.01,2013-08-08 04:12:00,
2013-08-08 00:18:00,67.8,66.6,30.08,SSE,152,0.0,4.0,96,0.00,,---,0.00,0.00,VWS V14.01,2013-08-08 04:18:00,
2013-08-08 00:23:00,67.8,66.6,30.09,NNE,13,0.0,4.0,96,0.00,,---,0.00,0.00,VWS V14.01,2013-08-08 04:23:00,
2013-08-08 00:28:00,67.8,66.6,30.09,NNW,348,1.0,4.0,96,0.00,,---,0.00,0.00,VWS V14.01,2013-08-08 04:28:00,
2013-08-08 00:30:00,67.8,66.6,30.08,NE,42,2.0,4.0,96,0.00,,---,0.00,0.00,VWS V14.01,2013-08-08 04:30:00,
2013-08-08 00:33:00,67.8,66.6,30.08,WNW,288,0.0,4.0,96,0.00,,---,0.00,0.00,VWS V14.01,2013-08-08 04:33:00,
2013-08-08 00:38:00,67.8,66.6,30.08,South,171,0.0,3.0,96,0.00,,---,0.00,0.00,VWS V14.01,2013-08-08 04:38:00,
2013-08-08 00:43:00,67.8,66.6,30.08,SE,130,0.0,4.0,96,0.00,,---,0.00,0.00,VWS V14.01,2013-08-08 04:43:00,
2013-08-08 00:48:00,67.8,66.6,30.09,South,173,0.0,4.0,96,0.00,,---,0.00,0.00,VWS V14.01,2013-08-08 04:48:00,
2013-08-08 00:53:00,67.8,66.6,30.09,SW,217,0.0,4.0,96,0.00,,---,0.00,0.00,VWS V14.01,2013-08-08 04:53:00,
2013-08-08 00:58:00,67.8,66.6,30.09,SW,217,0.0,4.0,96,0.00,,---,0.00,0.00,VWS V14.01,2013-08-08 04:58:00,
2013-08-08 01:00:00,67.8,66.6,30.09,ENE,77,0.0,4.0,96,0.00,,---,0.00,0.00,VWS V14.01,2013-08-08 05:00:00,
2013-08-08 01:03:00,67.8,66.6,30.09,ENE,77,0.0,4.0,96,0.00,,---,0.00,0.00,VWS V14.01,2013-08-08 05:03:00,
2013-08-08 01:08:00,67.8,66.6,30.09,ESE,107,0.0,1.0,96,0.00,,---,0.00,0.00,VWS V14.01,2013-08-08 05:08:00,
2013-08-08 01:13:00,67.8,66.6,30.08,East,87,0.0,4.0,96,0.00,,---,0.00,0.00,VWS V14.01,2013-08-08 05:13:00,
2013-08-08 01:18:00,67.8,66.6,30.08,ENE,71,1.0,4.0,96,0.00,,---,0.00,0.00,VWS V14.01,2013-08-08 05:18:00,
2013-08-08 01:23:00,67.8,66.6,30.08,ESE,111,0.0,4.0,96,0.00,,---,0.00,0.00,VWS V14.01,2013-08-08 05:23:00,
2013-08-08 01:28:00,67.8,66.6,30.08,West,277,0.0,4.0,96,0.00,,---,0.00,0.00,VWS V14.01,2013-08-08 05:28:00,
2013-08-08 01:30:00,67.8,66.6,30.08,SW,233,0.0,4.0,96,0.00,,---,0.00,0.00,VWS V14.01,2013-08-08 05:30:00,
2013-08-08 01:34:00,67.8,66.6,30.08,SW,233,0.0,0.0,96,0.00,,---,0.00,0.00,VWS V14.01,2013-08-08 05:34:00,
2013-08-08 01:39:00,67.7,66.5,30.07,ESE,115,0.0,0.0,96,0.00,,---,0.00,0.00,VWS V14.01,2013-08-08 05:39:00,
2013-08-08 01:44:00,67.7,66.5,30.08,ESE,119,0.0,6.0,96,0.00,,---,0.00,0.00,VWS V14.01,2013-08-08 05:44:00,
2013-08-08 01:49:00,67.7,66.5,30.07,East,98,0.0,6.0,96,0.00,,---,0.00,0.00,VWS V14.01,2013-08-08 05:49:00,
2013-08-08 01:54:00,67.6,66.4,30.07,SSE,168,1.0,6.0,96,0.00,,---,0.00,0.00,VWS V14.01,2013-08-08 05:54:00,
2013-08-08 01:59:00,67.6,66.4,30.07,SSW,205,0.0,6.0,96,0.00,,---,0.00,0.00,VWS V14.01,2013-08-08 05:59:00,
2013-08-08 02:00:00,67.6,66.4,30.07,East,88,0.0,6.0,96,0.00,,---,0.00,0.00,VWS V14.01,2013-08-08 06:00:00,
2013-08-08 02:04:00,67.6,66.4,30.07,East,88,0.0,0.0,96,0.00,,---,0.00,0.00,VWS V14.01,2013-08-08 06:04:00,
2013-08-08 02:09:00,67.6,66.4,30.07,East,88,0.0,1.0,96,0.00,,---,0.00,0.00,VWS V14.01,2013-08-08 06:09:00,
2013-08-08 02:14:00,67.5,66.3,30.07,SSE,163,0.0,3.0,96,0.00,,---,0.00,0.00,VWS V14.01,2013-08-08 06:14:00,
2013-08-08 02:20:00,67.5,66.3,30.08,SSE,161,0.0,3.0,96,0.00,,---,0.00,0.00,VWS V14.01,2013-08-08 06:20:00,
2013-08-08 02:25:00,67.5,66.3,30.07,SSE,161,0.0,3.0,96,0.00,,---,0.00,0.00,VWS V14.01,2013-08-08 06:25:00,
2013-08-08 02:30:00,67.5,66.3,30.08,SSE,159,0.0,3.0,96,0.00,,---,0.00,0.00,VWS V14.01,2013-08-08 06:30:00,
2013-08-08 02:35:00,67.5,66.3,30.08,SSE,159,0.0,0.0,96,0.00,,---,0.00,0.00,VWS V14.01,2013-08-08 06:35:00,
2013-08-08 02:40:00,67.5,66.3,30.08,SSE,158,0.0,0.0,96,0.00,,---,0.00,0.00,VWS V14.01,2013-08-08 06:40:00,
2013-08-08 02:45:00,67.5,66.3,30.08,SSE,158,0.0,0.0,96,0.00,,---,0.00,0.00,VWS V14.01,2013-08-08 06:45:00,
2013-08-08 02:50:00,67.6,66.4,30.07,SSE,162,0.0,1.0,96,0.00,,---,0.00,0.00,VWS V14.01,2013-08-08 06:50:00,
2013-08-08 02:55:00,67.6,66.4,30.08,SSE,162,0.0,1.0,96,0.00,,---,0.00,0.00,VWS V14.01,2013-08-08 06:55:00,
2013-08-08 03:00:00,67.6,66.4,30.08,SSE,162,0.0,1.0,96,0.01,,---,0.01,0.00,VWS V14.01,2013-08-08 07:00:00,
2013-08-08 03:05:00,67.6,66.4,30.08,East,84,0.0,0.0,96,0.01,,---,0.01,0.00,VWS V14.01,2013-08-08 07:05:00,
2013-08-08 03:10:00,67.6,66.4,30.08,East,84,0.0,0.0,96,0.02,,---,0.02,0.00,VWS V14.01,2013-08-08 07:10:00,
2013-08-08 03:15:00,67.7,66.5,30.07,East,94,0.0,2.0,96,0.04,,---,0.04,0.00,VWS V14.01,2013-08-08 07:15:00,
2013-08-08 03:21:00,67.7,66.5,30.08,East,94,0.0,2.0,96,0.05,,---,0.05,0.00,VWS V14.01,2013-08-08 07:21:00,
2013-08-08 03:26:00,67.7,66.5,30.08,East,94,0.0,2.0,96,0.05,,---,0.05,0.00,VWS V14.01,2013-08-08 07:26:00,
2013-08-08 03:30:00,67.7,66.8,30.08,East,98,0.0,2.0,97,0.06,,---,0.06,0.00,VWS V14.01,2013-08-08 07:30:00,
2013-08-08 03:31:00,67.7,66.5,30.07,SSE,153,0.0,2.0,96,0.06,,---,0.06,0.00,VWS V14.01,2013-08-08 07:31:00,
2013-08-08 03:36:00,67.7,66.8,30.07,East,98,0.0,0.0,97,0.06,,---,0.06,0.00,VWS V14.01,2013-08-08 07:36:00,
2013-08-08 03:41:00,67.7,66.8,30.07,East,98,0.0,0.0,97,0.06,,---,0.06,0.00,VWS V14.01,2013-08-08 07:41:00,
2013-08-08 03:46:00,67.6,66.7,30.07,East,98,0.0,0.0,97,0.06,,---,0.06,0.00,VWS V14.01,2013-08-08 07:46:00,
2013-08-08 03:51:00,67.6,66.4,30.08,East,98,0.0,0.0,96,0.06,,---,0.06,0.00,VWS V14.01,2013-08-08 07:51:00,
2013-08-08 03:56:00,67.6,66.4,30.07,East,98,0.0,3.0,96,0.06,,---,0.06,0.00,VWS V14.01,2013-08-08 07:56:00,
2013-08-08 04:00:00,67.6,66.7,30.07,SSE,164,0.0,4.0,97,0.06,,---,0.06,0.00,VWS V14.01,2013-08-08 08:00:00,
2013-08-08 04:01:00,67.6,66.7,30.07,East,98,0.0,3.0,97,0.06,,---,0.06,0.00,VWS V14.01,2013-08-08 08:01:00,
2013-08-08 04:06:00,67.6,66.7,30.07,SSE,168,0.0,1.0,97,0.05,,---,0.06,0.00,VWS V14.01,2013-08-08 08:06:00,
2013-08-08 04:11:00,67.6,66.7,30.07,ENE,76,0.0,3.0,97,0.05,,---,0.06,0.00,VWS V14.01,2013-08-08 08:11:00,
2013-08-08 04:17:00,67.6,66.7,30.07,ENE,78,0.0,3.0,97,0.05,,---,0.06,0.00,VWS V14.01,2013-08-08 08:17:00,
2013-08-08 04:22:00,67.5,66.6,30.07,ENE,78,0.0,3.0,97,0.05,,---,0.06,0.00,VWS V14.01,2013-08-08 08:22:00,
2013-08-08 04:27:00,67.5,66.6,30.07,SSE,153,0.0,3.0,97,0.05,,---,0.06,0.00,VWS V14.01,2013-08-08 08:27:00,
2013-08-08 04:30:00,67.5,66.6,30.07,SSW,192,0.0,4.0,97,0.05,,---,0.06,0.00,VWS V14.01,2013-08-08 08:30:00,
2013-08-08 04:32:00,67.5,66.6,30.07,SSW,192,0.0,4.0,97,0.05,,---,0.06,0.00,VWS V14.01,2013-08-08 08:32:00,
2013-08-08 04:37:00,67.4,66.5,30.06,SE,126,0.0,3.0,97,0.00,,---,0.06,0.00,VWS V14.01,2013-08-08 08:37:00,
2013-08-08 04:42:00,67.4,66.5,30.07,SE,126,0.0,3.0,97,0.00,,---,0.06,0.00,VWS V14.01,2013-08-08 08:42:00,
2013-08-08 04:47:00,67.3,66.4,30.06,SE,124,0.0,3.0,97,0.00,,---,0.06,0.00,VWS V14.01,2013-08-08 08:47:00,
2013-08-08 04:52:00,67.3,66.4,30.07,SE,124,0.0,3.0,97,0.00,,---,0.06,0.00,VWS V14.01,2013-08-08 08:52:00,
2013-08-08 04:57:00,67.2,66.3,30.07,SE,124,0.0,3.0,97,0.00,,---,0.06,0.00,VWS V14.01,2013-08-08 08:57:00,
2013-08-08 05:00:00,67.2,66.3,30.06,East,80,0.0,3.0,97,0.00,,---,0.06,0.00,VWS V14.01,2013-08-08 09:00:00,
2013-08-08 05:02:00,67.2,66.3,30.06,East,80,0.0,3.0,97,0.00,,---,0.06,0.00,VWS V14.01,2013-08-08 09:02:00,
2013-08-08 05:07:00,67.2,66.3,30.06,East,86,0.0,1.0,97,0.00,,---,0.06,0.00,VWS V14.01,2013-08-08 09:07:00,
2013-08-08 05:13:00,67.2,66.3,30.06,East,86,0.0,1.0,97,0.00,,---,0.06,0.00,VWS V14.01,2013-08-08 09:13:00,
2013-08-08 05:18:00,67.2,66.3,30.07,East,86,0.0,1.0,97,0.00,,---,0.06,0.00,VWS V14.01,2013-08-08 09:18:00,
2013-08-08 05:23:00,67.2,66.3,30.07,East,86,0.0,1.0,97,0.00,,---,0.06,0.00,VWS V14.01,2013-08-08 09:23:00,
2013-08-08 05:28:00,67.2,66.3,30.07,SSE,152,0.0,2.0,97,0.00,,---,0.06,0.00,VWS V14.01,2013-08-08 09:28:00,
2013-08-08 05:30:00,67.3,66.4,30.06,SSE,152,0.0,2.0,97,0.00,,---,0.06,0.00,VWS V14.01,2013-08-08 09:30:00,
2013-08-08 05:33:00,67.3,66.4,30.06,SSE,152,0.0,2.0,97,0.00,,---,0.06,0.00,VWS V14.01,2013-08-08 09:33:00,
2013-08-08 05:38:00,67.3,66.4,30.07,East,87,0.0,3.0,97,0.00,,---,0.06,0.00,VWS V14.01,2013-08-08 09:38:00,
2013-08-08 05:43:00,67.3,66.4,30.07,East,98,0.0,3.0,97,0.00,,---,0.06,0.00,VWS V14.01,2013-08-08 09:43:00,
2013-08-08 05:48:00,67.3,66.4,30.07,East,98,0.0,3.0,97,0.00,,---,0.06,0.00,VWS V14.01,2013-08-08 09:48:00,
2013-08-08 05:53:00,67.3,66.4,30.07,NE,39,0.0,3.0,97,0.00,,---,0.06,0.00,VWS V14.01,2013-08-08 09:53:00,
2013-08-08 05:58:00,67.3,66.4,30.06,East,91,0.0,3.0,97,0.00,,---,0.06,0.00,VWS V14.01,2013-08-08 09:58:00,
2013-08-08 06:00:00,67.3,66.4,30.06,East,91,0.0,3.0,97,0.00,,---,0.06,0.00,VWS V14.01,2013-08-08 10:00:00,
2013-08-08 06:03:00,67.3,66.4,30.06,East,91,0.0,3.0,97,0.00,,---,0.06,0.00,VWS V14.01,2013-08-08 10:03:00,
2013-08-08 06:08:00,67.3,66.4,30.07,East,91,0.0,0.0,97,0.00,,---,0.06,0.00,VWS V14.01,2013-08-08 10:08:00,
2013-08-08 06:13:00,67.3,66.4,30.07,East,91,0.0,0.0,97,0.00,,---,0.06,0.00,VWS V14.01,2013-08-08 10:13:00,
2013-08-08 06:18:00,67.3,66.4,30.07,SE,136,1.0,1.0,97,0.00,,---,0.06,0.00,VWS V14.01,2013-08-08 10:18:00,
2013-08-08 06:24:00,67.3,66.4,30.07,ESE,106,0.0,2.0,97,0.00,,---,0.06,0.00,VWS V14.01,2013-08-08 10:24:00,
2013-08-08 06:29:00,67.2,66.3,30.07,ESE,106,0.0,2.0,97,0.00,,---,0.06,0.00,VWS V14.01,2013-08-08 10:29:00,
2013-08-08 06:30:00,67.2,66.3,30.07,ESE,106,0.0,2.0,97,0.00,,---,0.06,0.00,VWS V14.01,2013-08-08 10:30:00,
2013-08-08 06:34:00,67.2,66.3,30.07,ESE,106,0.0,0.0,97,0.00,,---,0.06,0.00,VWS V14.01,2013-08-08 10:34:00,
2013-08-08 06:39:00,67.2,66.3,30.07,ESE,106,0.0,0.0,97,0.00,,---,0.06,0.00,VWS V14.01,2013-08-08 10:39:00,
2013-08-08 06:44:00,67.2,66.3,30.07,SSE,150,0.0,1.0,97,0.00,,---,0.06,0.00,VWS V14.01,2013-08-08 10:44:00,
2013-08-08 06:49:00,67.2,66.3,30.07,SSE,153,0.0,3.0,97,0.00,,---,0.06,5.00,VWS V14.01,2013-08-08 10:49:00,
2013-08-08 06:54:00,67.2,66.3,30.07,SSE,153,0.0,3.0,97,0.00,,---,0.06,5.00,VWS V14.01,2013-08-08 10:54:00,
2013-08-08 06:59:00,67.1,66.2,30.07,SSE,153,0.0,3.0,97,0.00,,---,0.06,5.00,VWS V14.01,2013-08-08 10:59:00,
2013-08-08 07:00:00,67.1,66.2,30.07,SSE,153,0.0,3.0,97,0.00,,---,0.06,9.00,VWS V14.01,2013-08-08 11:00:00,
2013-08-08 07:04:00,67.1,66.2,30.07,SSE,153,0.0,1.0,97,0.00,,---,0.06,11.00,VWS V14.01,2013-08-08 11:04:00,
2013-08-08 07:10:00,67.1,66.2,30.07,SSE,153,0.0,1.0,97,0.00,,---,0.06,12.00,VWS V14.01,2013-08-08 11:10:00,
2013-08-08 07:15:00,67.1,66.2,30.07,WSW,258,0.0,1.0,97,0.00,,---,0.06,26.00,VWS V14.01,2013-08-08 11:15:00,
2013-08-08 07:20:00,67.0,66.1,30.07,West,262,0.0,2.0,97,0.00,,---,0.06,35.00,VWS V14.01,2013-08-08 11:20:00,
2013-08-08 07:25:00,67.1,66.2,30.07,ESE,119,0.0,2.0,97,0.00,,---,0.06,39.00,VWS V14.01,2013-08-08 11:25:00,
2013-08-08 07:30:00,67.1,66.2,30.07,SSE,164,0.0,2.0,97,0.00,,---,0.06,49.00,VWS V14.01,2013-08-08 11:30:00,
2013-08-08 07:35:00,67.1,66.5,30.07,East,98,0.0,1.0,98,0.00,,---,0.06,42.00,VWS V14.01,2013-08-08 11:35:00,
2013-08-08 07:40:00,67.2,66.6,30.08,East,98,0.0,1.0,98,0.00,,---,0.06,30.00,VWS V14.01,2013-08-08 11:40:00,
2013-08-08 07:45:00,67.2,66.6,30.07,East,98,0.0,1.0,98,0.00,,---,0.06,33.00,VWS V14.01,2013-08-08 11:45:00,
2013-08-08 07:50:00,67.2,66.6,30.08,East,98,0.0,1.0,98,0.00,,---,0.06,39.00,VWS V14.01,2013-08-08 11:50:00,
2013-08-08 07:55:00,67.3,66.7,30.07,East,81,0.0,3.0,98,0.00,,---,0.06,47.00,VWS V14.01,2013-08-08 11:55:00,
2013-08-08 08:00:00,67.3,66.7,30.07,East,81,0.0,3.0,98,0.00,,---,0.06,56.00,VWS V14.01,2013-08-08 12:00:00,
2013-08-08 08:05:00,67.4,66.8,30.08,ESE,115,0.0,0.0,98,0.00,,---,0.06,72.00,VWS V14.01,2013-08-08 12:05:00,
2013-08-08 08:10:00,67.5,66.9,30.08,WNW,286,0.0,3.0,98,0.00,,---,0.06,97.00,VWS V14.01,2013-08-08 12:10:00,
2013-08-08 08:16:00,67.5,66.9,30.08,SSE,152,0.0,3.0,98,0.00,,---,0.06,54.00,VWS V14.01,2013-08-08 12:16:00,
2013-08-08 08:21:00,67.6,67.0,30.08,SSE,152,0.0,3.0,98,0.00,,---,0.06,53.00,VWS V14.01,2013-08-08 12:21:00,
2013-08-08 08:26:00,67.6,67.0,30.08,East,82,0.0,3.0,98,0.00,,---,0.06,44.00,VWS V14.01,2013-08-08 12:26:00,
2013-08-08 08:30:00,67.7,67.1,30.09,East,86,0.0,3.0,98,0.00,,---,0.06,67.00,VWS V14.01,2013-08-08 12:30:00,
2013-08-08 08:31:00,67.7,67.1,30.09,East,86,0.0,3.0,98,0.00,,---,0.06,65.00,VWS V14.01,2013-08-08 12:31:00,
2013-08-08 08:36:00,67.7,67.1,30.09,ESE,111,0.0,0.0,98,0.00,,---,0.06,49.00,VWS V14.01,2013-08-08 12:36:00,
2013-08-08 08:41:00,67.7,67.1,30.09,NNE,33,0.0,3.0,98,0.00,,---,0.06,37.00,VWS V14.01,2013-08-08 12:41:00,
2013-08-08 08:46:00,67.7,67.1,30.10,NNE,33,0.0,3.0,98,0.00,,---,0.06,40.00,VWS V14.01,2013-08-08 12:46:00,
2013-08-08 08:51:00,67.8,66.9,30.10,NNE,33,0.0,3.0,97,0.00,,---,0.06,35.00,VWS V14.01,2013-08-08 12:51:00,
2013-08-08 08:56:00,67.8,67.2,30.10,NNE,33,0.0,3.0,98,0.00,,---,0.06,39.00,VWS V14.01,2013-08-08 12:56:00,
2013-08-08 09:00:00,67.9,67.3,30.10,East,90,0.0,3.0,98,0.00,,---,0.06,49.00,VWS V14.01,2013-08-08 13:00:00,
2013-08-08 09:01:00,67.9,67.3,30.09,East,90,0.0,3.0,98,0.00,,---,0.06,58.00,VWS V14.01,2013-08-08 13:01:00,
2013-08-08 09:06:00,67.8,67.2,30.10,East,90,0.0,0.0,98,0.00,,---,0.06,67.00,VWS V14.01,2013-08-08 13:06:00,
2013-08-08 09:12:00,67.9,67.3,30.09,East,90,0.0,1.0,98,0.00,,---,0.06,128.00,VWS V14.01,2013-08-08 13:12:00,
2013-08-08 09:17:00,68.0,67.4,30.09,East,90,0.0,1.0,98,0.00,,---,0.06,146.00,VWS V14.01,2013-08-08 13:17:00,
2013-08-08 09:22:00,68.1,67.5,30.09,SSW,213,0.0,3.0,98,0.00,,---,0.06,141.00,VWS V14.01,2013-08-08 13:22:00,
2013-08-08 09:27:00,68.2,67.6,30.09,East,96,1.0,3.0,98,0.00,,---,0.06,214.00,VWS V14.01,2013-08-08 13:27:00,
2013-08-08 09:30:00,68.4,67.8,30.09,East,96,0.0,3.0,98,0.00,,---,0.06,156.00,VWS V14.01,2013-08-08 13:30:00,
2013-08-08 09:32:00,68.3,67.7,30.09,East,96,0.0,3.0,98,0.00,,---,0.06,172.00,VWS V14.01,2013-08-08 13:32:00,
2013-08-08 09:37:00,68.5,67.9,30.09,East,92,0.0,1.0,98,0.00,,---,0.06,230.00,VWS V14.01,2013-08-08 13:37:00,
2013-08-08 09:42:00,68.5,67.9,30.09,SW,221,0.0,4.0,98,0.00,,---,0.06,178.00,VWS V14.01,2013-08-08 13:42:00,
2013-08-08 09:47:00,68.6,68.0,30.10,SW,219,0.0,4.0,98,0.00,,---,0.06,195.00,VWS V14.01,2013-08-08 13:47:00,
2013-08-08 09:52:00,68.9,68.3,30.10,SW,214,0.0,4.0,98,0.00,,---,0.06,271.00,VWS V14.01,2013-08-08 13:52:00,
2013-08-08 09:57:00,69.1,68.5,30.10,SW,216,0.0,4.0,98,0.00,,---,0.06,229.00,VWS V14.01,2013-08-08 13:57:00,
2013-08-08 10:00:00,69.3,68.7,30.10,East,86,0.0,4.0,98,0.00,,---,0.06,295.00,VWS V14.01,2013-08-08 14:00:00,
2013-08-08 10:02:00,69.3,68.7,30.10,East,86,0.0,4.0,98,0.00,,---,0.06,304.00,VWS V14.01,2013-08-08 14:02:00,
2013-08-08 10:08:00,69.5,68.6,30.10,ENE,65,0.0,3.0,97,0.00,,---,0.06,265.00,VWS V14.01,2013-08-08 14:08:00,
2013-08-08 10:13:00,69.7,68.8,30.10,WSW,246,0.0,4.0,97,0.00,,---,0.06,179.00,VWS V14.01,2013-08-08 14:13:00,
2013-08-08 10:18:00,69.8,68.9,30.10,West,280,0.0,4.0,97,0.00,,---,0.06,169.00,VWS V14.01,2013-08-08 14:18:00,
2013-08-08 10:23:00,70.0,68.8,30.09,WNW,288,0.0,4.0,96,0.00,,---,0.06,149.00,VWS V14.01,2013-08-08 14:23:00,
2013-08-08 10:28:00,70.1,68.9,30.09,North,355,0.0,4.0,96,0.00,,---,0.06,130.00,VWS V14.01,2013-08-08 14:28:00,
2013-08-08 10:30:00,70.1,68.6,30.10,North,355,0.0,4.0,95,0.00,,---,0.06,128.00,VWS V14.01,2013-08-08 14:30:00,
2013-08-08 10:33:00,70.1,68.6,30.10,North,355,0.0,4.0,95,0.00,,---,0.06,128.00,VWS V14.01,2013-08-08 14:33:00,
2013-08-08 10:38:00,70.2,68.7,30.10,SSW,213,0.0,0.0,95,0.00,,---,0.06,156.00,VWS V14.01,2013-08-08 14:38:00,
2013-08-08 10:43:00,70.3,68.8,30.09,East,97,0.0,2.0,95,0.00,,---,0.06,225.00,VWS V14.01,2013-08-08 14:43:00,
2013-08-08 10:48:00,70.4,68.6,30.09,North,5,0.0,3.0,94,0.00,,---,0.06,308.00,VWS V14.01,2013-08-08 14:48:00,
2013-08-08 10:53:00,70.7,68.9,30.09,SW,221,0.0,6.0,94,0.00,,---,0.06,308.00,VWS V14.01,2013-08-08 14:53:00,
2013-08-08 10:58:00,71.0,69.2,30.09,WSW,258,0.0,6.0,94,0.00,,---,0.06,278.00,VWS V14.01,2013-08-08 14:58:00,
2013-08-08 11:00:00,71.2,69.1,30.09,WSW,248,0.0,6.0,93,0.00,,---,0.06,288.00,VWS V14.01,2013-08-08 15:00:00,
2013-08-08 11:03:00,71.2,69.1,30.09,WSW,248,0.0,0.0,93,0.00,,---,0.06,288.00,VWS V14.01,2013-08-08 15:03:00,
2013-08-08 11:08:00,71.5,69.4,30.09,SE,132,0.0,1.0,93,0.00,,---,0.06,295.00,VWS V14.01,2013-08-08 15:08:00,
2013-08-08 11:14:00,71.8,69.3,30.10,SSE,150,0.0,5.0,92,0.00,,---,0.06,346.00,VWS V14.01,2013-08-08 15:14:00,
2013-08-08 11:19:00,72.1,69.7,30.10,ESE,108,0.0,5.0,92,0.00,,---,0.06,401.00,VWS V14.01,2013-08-08 15:19:00,
2013-08-08 11:24:00,72.5,69.4,30.10,ENE,78,0.0,5.0,90,0.00,,---,0.06,406.00,VWS V14.01,2013-08-08 15:24:00,
2013-08-08 11:29:00,72.9,69.8,30.10,ESE,115,0.0,5.0,90,0.00,,---,0.06,380.00,VWS V14.01,2013-08-08 15:29:00,
2013-08-08 11:30:00,73.3,70.2,30.09,ESE,115,0.0,5.0,90,0.00,,---,0.06,369.00,VWS V14.01,2013-08-08 15:30:00,
2013-08-08 11:34:00,73.3,70.2,30.10,ESE,115,0.0,0.0,90,0.00,,---,0.06,369.00,VWS V14.01,2013-08-08 15:34:00,
2013-08-08 11:39:00,73.6,70.2,30.10,East,88,0.0,2.0,89,0.00,,---,0.06,357.00,VWS V14.01,2013-08-08 15:39:00,
2013-08-08 11:44:00,73.7,70.3,30.09,East,82,0.0,2.0,89,0.00,,---,0.06,425.00,VWS V14.01,2013-08-08 15:44:00,
2013-08-08 11:49:00,73.9,70.1,30.09,SE,126,0.0,2.0,88,0.00,,---,0.06,359.00,VWS V14.01,2013-08-08 15:49:00,
2013-08-08 11:54:00,74.2,70.4,30.10,WNW,302,0.0,2.0,88,0.00,,---,0.06,466.00,VWS V14.01,2013-08-08 15:54:00,
2013-08-08 11:59:00,74.4,69.9,30.09,NE,50,0.0,4.0,86,0.00,,---,0.06,250.00,VWS V14.01,2013-08-08 15:59:00,
2013-08-08 12:00:00,74.8,70.3,30.09,East,98,0.0,5.0,86,0.00,,---,0.06,935.00,VWS V14.01,2013-08-08 16:00:00,
2013-08-08 12:04:00,74.9,70.8,30.09,WSW,244,3.0,4.0,87,0.00,,---,0.06,935.00,VWS V14.01,2013-08-08 16:04:00,
2013-08-08 12:09:00,75.4,70.2,30.09,SSE,157,1.0,4.0,84,0.00,,---,0.06,403.00,VWS V14.01,2013-08-08 16:09:00,
2013-08-08 12:14:00,75.4,70.2,30.09,SSE,150,0.0,7.0,84,0.00,,---,0.06,271.00,VWS V14.01,2013-08-08 16:14:00,
2013-08-08 12:19:00,75.9,71.4,30.10,SSE,150,0.0,7.0,86,0.00,,---,0.06,946.00,VWS V14.01,2013-08-08 16:19:00,
2013-08-08 12:24:00,76.7,72.2,30.10,SSE,148,0.0,7.0,86,0.00,,---,0.06,703.00,VWS V14.01,2013-08-08 16:24:00,
2013-08-08 12:29:00,77.2,71.3,30.09,East,94,0.0,7.0,82,0.00,,---,0.06,1025.00,VWS V14.01,2013-08-08 16:29:00,
2013-08-08 12:30:00,77.8,71.5,30.09,WSW,246,0.0,7.0,81,0.00,,---,0.06,867.00,VWS V14.01,2013-08-08 16:30:00,
2013-08-08 12:34:00,78.1,71.8,30.09,East,81,0.0,5.0,81,0.00,,---,0.06,1044.00,VWS V14.01,2013-08-08 16:34:00,
2013-08-08 12:40:00,78.5,71.4,30.09,SE,136,0.0,5.0,79,0.00,,---,0.06,1037.00,VWS V14.01,2013-08-08 16:40:00,
2013-08-08 12:45:00,79.1,71.7,30.09,South,169,0.0,5.0,78,0.00,,---,0.06,664.00,VWS V14.01,2013-08-08 16:45:00,
2013-08-08 12:50:00,79.5,72.0,30.09,SW,229,0.0,5.0,78,0.00,,---,0.06,392.00,VWS V14.01,2013-08-08 16:50:00,
2013-08-08 12:55:00,79.3,72.2,30.09,West,275,0.0,6.0,79,0.00,,---,0.06,462.00,VWS V14.01,2013-08-08 16:55:00,
2013-08-08 13:00:00,78.9,72.2,30.08,ENE,69,0.0,6.0,80,0.00,,---,0.06,591.00,VWS V14.01,2013-08-08 17:00:00,
2013-08-08 13:05:00,78.4,71.3,30.08,WNW,302,0.0,1.0,79,0.00,,---,0.06,529.00,VWS V14.01,2013-08-08 17:05:00,
2013-08-08 13:10:00,78.5,71.4,30.09,ENE,63,2.0,3.0,79,0.00,,---,0.06,469.00,VWS V14.01,2013-08-08 17:10:00,
2013-08-08 13:15:00,78.7,71.3,30.09,SE,140,0.0,3.0,78,0.00,,---,0.06,436.00,VWS V14.01,2013-08-08 17:15:00,
2013-08-08 13:20:00,78.4,71.3,30.09,SSE,151,0.0,3.0,79,0.00,,---,0.06,413.00,VWS V14.01,2013-08-08 17:20:00,
2013-08-08 13:25:00,78.3,71.3,30.08,NE,36,0.0,6.0,79,0.00,,---,0.06,1041.00,VWS V14.01,2013-08-08 17:25:00,
2013-08-08 13:30:00,78.2,71.2,30.08,South,188,0.0,6.0,79,0.00,,---,0.06,1178.00,VWS V14.01,2013-08-08 17:30:00,
2013-08-08 13:35:00,78.8,71.4,30.08,NNW,344,1.0,4.0,78,0.00,,---,0.06,1178.00,VWS V14.01,2013-08-08 17:35:00,
2013-08-08 13:40:00,79.7,72.6,30.07,NE,56,0.0,5.0,79,0.00,,---,0.06,271.00,VWS V14.01,2013-08-08 17:40:00,
2013-08-08 13:46:00,80.0,72.2,30.08,ENE,75,2.0,5.0,77,0.00,,---,0.06,399.00,VWS V14.01,2013-08-08 17:46:00,
2013-08-08 13:51:00,80.0,71.4,30.07,ESE,109,0.0,5.0,75,0.00,,---,0.06,325.00,VWS V14.01,2013-08-08 17:51:00,
2013-08-08 13:56:00,79.8,71.6,30.07,ENE,57,0.0,5.0,76,0.00,,---,0.06,306.00,VWS V14.01,2013-08-08 17:56:00,
2013-08-08 14:00:00,79.3,71.1,30.07,NNE,16,0.0,5.0,76,0.00,,---,0.06,151.00,VWS V14.01,2013-08-08 18:00:00,
2013-08-08 14:01:00,79.4,71.2,30.07,East,101,0.0,5.0,76,0.00,,---,0.06,172.00,VWS V14.01,2013-08-08 18:01:00,
2013-08-08 14:06:00,79.1,70.9,30.07,ENE,69,0.0,3.0,76,0.00,,---,0.06,179.00,VWS V14.01,2013-08-08 18:06:00,
2013-08-08 14:11:00,78.5,70.7,30.07,East,98,3.0,4.0,77,0.00,,---,0.06,272.00,VWS V14.01,2013-08-08 18:11:00,
2013-08-08 14:16:00,78.1,71.1,30.07,West,261,0.0,4.0,79,0.00,,---,0.06,162.00,VWS V14.01,2013-08-08 18:16:00,
2013-08-08 14:21:00,77.6,69.8,30.07,East,81,0.0,5.0,77,0.00,,---,0.06,149.00,VWS V14.01,2013-08-08 18:21:00,
2013-08-08 14:26:00,77.3,70.3,30.07,SSW,200,2.0,5.0,79,0.00,,---,0.06,158.00,VWS V14.01,2013-08-08 18:26:00,
2013-08-08 14:30:00,76.7,70.4,30.07,East,80,0.0,5.0,81,0.00,,---,0.06,220.00,VWS V14.01,2013-08-08 18:30:00,
2013-08-08 14:31:00,76.9,70.6,30.07,East,80,0.0,5.0,81,0.00,,---,0.06,207.00,VWS V14.01,2013-08-08 18:31:00,
2013-08-08 14:36:00,76.6,70.3,30.06,SSE,150,0.0,0.0,81,0.00,,---,0.06,232.00,VWS V14.01,2013-08-08 18:36:00,
2013-08-08 14:41:00,76.4,70.5,30.06,ENE,66,0.0,3.0,82,0.00,,---,0.06,202.00,VWS V14.01,2013-08-08 18:41:00,
2013-08-08 14:46:00,76.3,70.4,30.06,ENE,77,0.0,3.0,82,0.00,,---,0.06,163.00,VWS V14.01,2013-08-08 18:46:00,
2013-08-08 14:51:00,76.2,70.3,30.06,ENE,67,0.0,3.0,82,0.00,,---,0.06,183.00,VWS V14.01,2013-08-08 18:51:00,
2013-08-08 14:57:00,76.1,70.2,30.06,SE,135,1.0,5.0,82,0.00,,---,0.06,230.00,VWS V14.01,2013-08-08 18:57:00,
2013-08-08 15:00:00,76.0,70.1,30.06,ESE,115,0.0,5.0,82,0.00,,---,0.06,316.00,VWS V14.01,2013-08-08 19:00:00,
2013-08-08 15:02:00,76.0,70.1,30.06,ESE,115,0.0,5.0,82,0.00,,---,0.06,279.00,VWS V14.01,2013-08-08 19:02:00,
2013-08-08 15:07:00,76.0,70.1,30.06,SSE,159,1.0,1.0,82,0.00,,---,0.06,388.00,VWS V14.01,2013-08-08 19:07:00,
2013-08-08 15:12:00,76.3,70.4,30.06,SE,138,0.0,6.0,82,0.00,,---,0.06,323.00,VWS V14.01,2013-08-08 19:12:00,
2013-08-08 15:17:00,76.6,70.7,30.06,ESE,115,0.0,6.0,82,0.00,,---,0.06,408.00,VWS V14.01,2013-08-08 19:17:00,
2013-08-08 15:22:00,76.9,71.0,30.06,WSW,237,0.0,6.0,82,0.00,,---,0.06,403.00,VWS V14.01,2013-08-08 19:22:00,
2013-08-08 15:27:00,77.2,70.9,30.06,WNW,301,0.0,6.0,81,0.00,,---,0.06,202.00,VWS V14.01,2013-08-08 19:27:00,
2013-08-08 15:30:00,77.4,71.1,30.06,East,83,0.0,6.0,81,0.00,,---,0.06,158.00,VWS V14.01,2013-08-08 19:30:00,
2013-08-08 15:32:00,77.4,71.1,30.06,South,173,0.0,6.0,81,0.00,,---,0.06,169.00,VWS V14.01,2013-08-08 19:32:00,
2013-08-08 15:37:00,77.3,71.0,30.06,SSE,158,0.0,3.0,81,0.00,,---,0.06,125.00,VWS V14.01,2013-08-08 19:37:00,
2013-08-08 15:42:00,77.2,71.3,30.06,ESE,123,0.0,3.0,82,0.00,,---,0.06,105.00,VWS V14.01,2013-08-08 19:42:00,
2013-08-08 15:47:00,76.8,70.9,30.05,ESE,115,0.0,3.0,82,0.00,,---,0.06,158.00,VWS V14.01,2013-08-08 19:47:00,
2013-08-08 15:52:00,76.5,71.0,30.05,SSE,153,0.0,3.0,83,0.00,,---,0.06,137.00,VWS V14.01,2013-08-08 19:52:00,
2013-08-08 15:57:00,76.3,70.8,30.05,SSE,153,0.0,3.0,83,0.00,,---,0.06,118.00,VWS V14.01,2013-08-08 19:57:00,
2013-08-08 16:00:00,76.1,70.9,30.05,SSE,153,0.0,3.0,84,0.00,,---,0.06,120.00,VWS V14.01,2013-08-08 20:00:00,
2013-08-08 16:02:00,76.2,71.0,30.05,SSE,153,0.0,3.0,84,0.00,,---,0.06,120.00,VWS V14.01,2013-08-08 20:02:00,
2013-08-08 16:07:00,76.0,70.8,30.05,SSE,153,0.0,0.0,84,0.00,,---,0.06,137.00,VWS V14.01,2013-08-08 20:07:00,
2013-08-08 16:12:00,75.9,71.1,30.05,SSE,153,0.0,0.0,85,0.00,,---,0.06,174.00,VWS V14.01,2013-08-08 20:12:00,
2013-08-08 16:17:00,75.8,71.0,30.05,SSE,153,0.0,0.0,85,0.00,,---,0.06,179.00,VWS V14.01,2013-08-08 20:17:00,
2013-08-08 16:22:00,75.7,70.9,30.05,SW,221,0.0,1.0,85,0.00,,---,0.06,176.00,VWS V14.01,2013-08-08 20:22:00,
2013-08-08 16:27:00,75.8,71.0,30.05,NE,37,0.0,1.0,85,0.00,,---,0.06,156.00,VWS V14.01,2013-08-08 20:27:00,
2013-08-08 16:30:00,75.9,70.7,30.05,ESE,102,0.0,2.0,84,0.00,,---,0.06,97.00,VWS V14.01,2013-08-08 20:30:00,
2013-08-08 16:32:00,75.9,70.7,30.05,ESE,102,0.0,2.0,84,0.00,,---,0.06,105.00,VWS V14.01,2013-08-08 20:32:00,
2013-08-08 16:37:00,75.8,70.6,30.05,ESE,102,0.0,0.0,84,0.00,,---,0.06,86.00,VWS V14.01,2013-08-08 20:37:00,
2013-08-08 16:43:00,75.8,70.6,30.05,SSE,161,0.0,1.0,84,0.00,,---,0.06,111.00,VWS V14.01,2013-08-08 20:43:00,
2013-08-08 16:48:00,75.8,70.6,30.05,East,80,0.0,1.0,84,0.00,,---,0.06,142.00,VWS V14.01,2013-08-08 20:48:00,
2013-08-08 16:53:00,75.7,70.9,30.05,East,80,0.0,1.0,85,0.00,,---,0.06,163.00,VWS V14.01,2013-08-08 20:53:00,
2013-08-08 16:58:00,75.7,70.9,30.04,East,80,0.0,1.0,85,0.00,,---,0.06,148.00,VWS V14.01,2013-08-08 20:58:00,
2013-08-08 17:00:00,75.7,70.5,30.05,SE,140,0.0,1.0,84,0.00,,---,0.06,139.00,VWS V14.01,2013-08-08 21:00:00,
2013-08-08 17:03:00,75.6,70.4,30.05,SE,140,0.0,1.0,84,0.00,,---,0.06,137.00,VWS V14.01,2013-08-08 21:03:00,
2013-08-08 17:08:00,75.7,70.5,30.05,SE,140,0.0,0.0,84,0.00,,---,0.06,155.00,VWS V14.01,2013-08-08 21:08:00,
2013-08-08 17:13:00,75.8,71.0,30.04,SE,140,0.0,0.0,85,0.00,,---,0.06,123.00,VWS V14.01,2013-08-08 21:13:00,
2013-08-08 17:18:00,75.8,71.0,30.04,SE,140,0.0,0.0,85,0.00,,---,0.06,91.00,VWS V14.01,2013-08-08 21:18:00,
2013-08-08 17:23:00,75.8,71.0,30.04,SE,140,0.0,0.0,85,0.00,,---,0.06,93.00,VWS V14.01,2013-08-08 21:23:00,
2013-08-08 17:29:00,75.9,70.7,30.04,SE,132,0.0,0.0,84,0.00,,---,0.06,81.00,VWS V14.01,2013-08-08 21:29:00,
2013-08-08 17:30:00,75.9,71.1,30.04,SE,132,0.0,0.0,85,0.00,,---,0.06,62.00,VWS V14.01,2013-08-08 21:30:00,
2013-08-08 17:34:00,75.8,71.0,30.04,SE,132,0.0,0.0,85,0.01,,---,0.07,58.00,VWS V14.01,2013-08-08 21:34:00,
2013-08-08 17:39:00,75.8,71.3,30.04,SE,132,0.0,0.0,86,0.01,,---,0.07,47.00,VWS V14.01,2013-08-08 21:39:00,
2013-08-08 17:44:00,75.6,71.1,30.05,SE,132,0.0,0.0,86,0.01,,---,0.07,56.00,VWS V14.01,2013-08-08 21:44:00,
2013-08-08 17:49:00,75.4,71.3,30.05,SE,132,0.0,0.0,87,0.01,,---,0.07,60.00,VWS V14.01,2013-08-08 21:49:00,
2013-08-08 17:54:00,75.1,70.6,30.05,SE,132,0.0,0.0,86,0.01,,---,0.07,72.00,VWS V14.01,2013-08-08 21:54:00,
2013-08-08 17:59:00,74.6,70.5,30.05,SE,132,0.0,1.0,87,0.01,,---,0.07,84.00,VWS V14.01,2013-08-08 21:59:00,
2013-08-08 18:00:00,74.4,70.6,30.04,SE,132,0.0,1.0,88,0.01,,---,0.07,107.00,VWS V14.01,2013-08-08 22:00:00,
2013-08-08 18:04:00,74.3,70.5,30.04,SE,132,0.0,0.0,88,0.01,,---,0.07,105.00,VWS V14.01,2013-08-08 22:04:00,
2013-08-08 18:09:00,74.0,70.2,30.04,SE,132,0.0,0.0,88,0.01,,---,0.07,84.00,VWS V14.01,2013-08-08 22:09:00,
2013-08-08 18:14:00,73.8,70.4,30.05,SE,132,0.0,1.0,89,0.01,,---,0.07,67.00,VWS V14.01,2013-08-08 22:14:00,
2013-08-08 18:20:00,73.6,70.5,30.05,SE,132,0.0,1.0,90,0.01,,---,0.07,65.00,VWS V14.01,2013-08-08 22:20:00,
2013-08-08 18:25:00,73.5,70.4,30.05,SE,132,0.0,1.0,90,0.01,,---,0.07,54.00,VWS V14.01,2013-08-08 22:25:00,
2013-08-08 18:30:00,73.5,70.4,30.04,SE,132,0.0,1.0,90,0.01,,---,0.07,47.00,VWS V14.01,2013-08-08 22:30:00,
2013-08-08 18:36:00,73.4,70.6,30.04,SE,133,0.0,0.0,91,0.01,,---,0.07,60.00,VWS V14.01,2013-08-08 22:36:00,
2013-08-08 18:41:00,73.3,70.5,30.04,SSE,161,0.0,1.0,91,0.02,,---,0.08,79.00,VWS V14.01,2013-08-08 22:41:00,
2013-08-08 18:46:00,73.3,70.5,30.04,South,169,0.0,1.0,91,0.02,,---,0.08,84.00,VWS V14.01,2013-08-08 22:46:00,
2013-08-08 18:51:00,73.2,70.7,30.04,SSE,152,0.0,2.0,92,0.02,,---,0.08,79.00,VWS V14.01,2013-08-08 22:51:00,
2013-08-08 18:56:00,73.1,70.6,30.04,East,92,0.0,2.0,92,0.02,,---,0.08,65.00,VWS V14.01,2013-08-08 22:56:00,
2013-08-08 19:00:00,73.0,70.5,30.04,SSE,168,1.0,2.0,92,0.02,,---,0.08,54.00,VWS V14.01,2013-08-08 23:00:00,
2013-08-08 19:01:00,73.0,70.5,30.04,West,262,0.0,2.0,92,0.02,,---,0.08,58.00,VWS V14.01,2013-08-08 23:01:00,
2013-08-08 19:06:00,72.9,70.4,30.04,East,90,0.0,2.0,92,0.01,,---,0.08,46.00,VWS V14.01,2013-08-08 23:06:00,
2013-08-08 19:11:00,72.8,70.3,30.05,South,188,2.0,3.0,92,0.01,,---,0.08,49.00,VWS V14.01,2013-08-08 23:11:00,
2013-08-08 19:17:00,72.8,70.3,30.05,ENE,69,0.0,3.0,92,0.01,,---,0.08,47.00,VWS V14.01,2013-08-08 23:17:00,
2013-08-08 19:22:00,72.7,70.2,30.05,SSE,161,0.0,3.0,92,0.01,,---,0.08,33.00,VWS V14.01,2013-08-08 23:22:00,
2013-08-08 19:27:00,72.6,70.2,30.04,ESE,121,0.0,3.0,92,0.01,,---,0.08,32.00,VWS V14.01,2013-08-08 23:27:00,
2013-08-08 19:30:00,72.4,69.9,30.05,ESE,116,0.0,3.0,92,0.01,,---,0.08,16.00,VWS V14.01,2013-08-08 23:30:00,
2013-08-08 19:32:00,72.5,70.1,30.05,ESE,115,0.0,3.0,92,0.01,,---,0.08,19.00,VWS V14.01,2013-08-08 23:32:00,
2013-08-08 19:37:00,72.4,69.9,30.05,SE,126,0.0,0.0,92,0.01,,---,0.08,11.00,VWS V14.01,2013-08-08 23:37:00,
2013-08-08 19:42:00,72.2,70.1,30.05,ESE,105,0.0,4.0,93,0.01,,---,0.08,11.00,VWS V14.01,2013-08-08 23:42:00,
2013-08-08 19:47:00,72.1,70.0,30.05,SSE,155,0.0,4.0,93,0.01,,---,0.08,7.00,VWS V14.01,2013-08-08 23:47:00,
2013-08-08 19:52:00,72.0,69.9,30.05,NW,317,0.0,4.0,93,0.01,,---,0.08,7.00,VWS V14.01,2013-08-08 23:52:00,
2013-08-08 19:57:00,71.9,69.8,30.05,NW,319,0.0,4.0,93,0.01,,---,0.08,7.00,VWS V14.01,2013-08-08 23:57:00,
2013-08-08 20:00:00,71.7,69.6,30.05,ESE,117,2.0,4.0,93,0.01,,---,0.08,9.00,VWS V14.01,2013-08-09 00:00:00,
2013-08-08 20:02:00,71.7,69.6,30.05,SW,220,0.0,4.0,93,0.01,,---,0.08,11.00,VWS V14.01,2013-08-09 00:02:00,
2013-08-08 20:08:00,71.6,69.8,30.04,SSE,157,0.0,2.0,94,0.00,,---,0.08,7.00,VWS V14.01,2013-08-09 00:08:00,
2013-08-08 20:13:00,71.6,69.8,30.04,SSE,155,0.0,2.0,94,0.00,,---,0.08,5.00,VWS V14.01,2013-08-09 00:13:00,
2013-08-08 20:19:00,71.4,69.6,30.04,NW,314,0.0,2.0,94,0.00,,---,0.08,0.00,VWS V14.01,2013-08-09 00:19:00,
2013-08-08 20:24:00,71.3,69.5,30.04,ESE,112,0.0,2.0,94,0.00,,---,0.08,0.00,VWS V14.01,2013-08-09 00:24:00,
2013-08-08 20:29:00,71.2,69.4,30.05,SE,130,0.0,5.0,94,0.00,,---,0.08,0.00,VWS V14.01,2013-08-09 00:29:00,
2013-08-08 20:30:00,71.2,69.4,30.04,East,90,0.0,5.0,94,0.00,,---,0.08,0.00,VWS V14.01,2013-08-09 00:30:00,
2013-08-08 20:34:00,71.1,69.3,30.04,West,279,0.0,2.0,94,0.00,,---,0.08,0.00,VWS V14.01,2013-08-09 00:34:00,
2013-08-08 20:40:00,71.0,69.2,30.04,South,183,0.0,4.0,94,0.00,,---,0.08,0.00,VWS V14.01,2013-08-09 00:40:00,
2013-08-08 20:45:00,71.0,69.2,30.05,South,184,0.0,4.0,94,0.00,,---,0.08,0.00,VWS V14.01,2013-08-09 00:45:00,
2013-08-08 20:50:00,70.9,69.1,30.05,SSW,192,0.0,4.0,94,0.00,,---,0.08,0.00,VWS V14.01,2013-08-09 00:50:00,
2013-08-08 20:55:00,70.9,69.1,30.05,SSW,192,0.0,4.0,94,0.00,,---,0.08,0.00,VWS V14.01,2013-08-09 00:55:00,
2013-08-08 21:00:00,70.8,69.0,30.05,NE,56,0.0,4.0,94,0.00,,---,0.08,0.00,VWS V14.01,2013-08-09 01:00:00,
2013-08-08 21:05:00,70.7,68.9,30.05,NNE,30,0.0,0.0,94,0.00,,---,0.08,0.00,VWS V14.01,2013-08-09 01:05:00,
2013-08-08 21:11:00,70.7,68.9,30.05,SSE,157,0.0,1.0,94,0.00,,---,0.08,0.00,VWS V14.01,2013-08-09 01:11:00,
2013-08-08 21:16:00,70.6,68.8,30.05,SE,143,0.0,3.0,94,0.00,,---,0.08,0.00,VWS V14.01,2013-08-09 01:16:00,
2013-08-08 21:21:00,70.6,68.8,30.05,East,87,0.0,4.0,94,0.00,,---,0.08,0.00,VWS V14.01,2013-08-09 01:21:00,
2013-08-08 21:27:00,70.5,68.7,30.05,SSE,153,0.0,4.0,94,0.00,,---,0.08,0.00,VWS V14.01,2013-08-09 01:27:00,
2013-08-08 21:30:00,70.4,68.6,30.05,ENE,70,2.0,4.0,94,0.00,,---,0.08,0.00,VWS V14.01,2013-08-09 01:30:00,
2013-08-08 21:32:00,70.4,68.6,30.05,SSE,167,3.0,4.0,94,0.00,,---,0.08,0.00,VWS V14.01,2013-08-09 01:32:00,
2013-08-08 21:37:00,70.3,68.8,30.05,SE,125,0.0,3.0,95,0.00,,---,0.08,0.00,VWS V14.01,2013-08-09 01:37:00,
2013-08-08 21:43:00,70.3,68.8,30.05,ENE,65,4.0,4.0,95,0.00,,---,0.08,0.00,VWS V14.01,2013-08-09 01:43:00,
2013-08-08 21:48:00,70.2,68.7,30.05,South,173,0.0,4.0,95,0.00,,---,0.08,0.00,VWS V14.01,2013-08-09 01:48:00,
2013-08-08 21:53:00,70.1,68.6,30.05,East,99,0.0,5.0,95,0.00,,---,0.08,0.00,VWS V14.01,2013-08-09 01:53:00,
2013-08-08 21:58:00,70.1,68.6,30.05,SSE,158,0.0,5.0,95,0.00,,---,0.08,0.00,VWS V14.01,2013-08-09 01:58:00,
2013-08-08 22:00:00,70.1,68.6,30.05,ENE,63,0.0,6.0,95,0.00,,---,0.08,0.00,VWS V14.01,2013-08-09 02:00:00,
2013-08-08 22:03:00,70.1,68.6,30.05,ENE,63,3.0,6.0,95,0.00,,---,0.08,0.00,VWS V14.01,2013-08-09 02:03:00,
2013-08-08 22:09:00,70.1,68.6,30.05,SSE,150,0.0,3.0,95,0.00,,---,0.08,0.00,VWS V14.01,2013-08-09 02:09:00,
2013-08-08 22:14:00,70.0,68.5,30.05,SSE,161,0.0,3.0,95,0.00,,---,0.08,0.00,VWS V14.01,2013-08-09 02:14:00,
2013-08-08 22:19:00,70.0,68.5,30.05,ESE,102,0.0,5.0,95,0.00,,---,0.08,0.00,VWS V14.01,2013-08-09 02:19:00,
2013-08-08 22:24:00,70.0,68.5,30.04,SSE,159,0.0,5.0,95,0.00,,---,0.08,0.00,VWS V14.01,2013-08-09 02:24:00,
2013-08-08 22:30:00,70.0,68.5,30.05,NE,46,0.0,5.0,95,0.00,,---,0.08,0.00,VWS V14.01,2013-08-09 02:30:00,
2013-08-08 22:35:00,70.0,68.5,30.05,South,191,0.0,2.0,95,0.00,,---,0.08,0.00,VWS V14.01,2013-08-09 02:35:00,
2013-08-08 22:40:00,70.0,68.5,30.05,SW,232,0.0,3.0,95,0.00,,---,0.08,0.00,VWS V14.01,2013-08-09 02:40:00,
2013-08-08 22:46:00,70.0,68.8,30.05,SW,232,0.0,3.0,96,0.00,,---,0.08,0.00,VWS V14.01,2013-08-09 02:46:00,
2013-08-08 22:51:00,70.1,68.9,30.05,East,90,0.0,3.0,96,0.00,,---,0.08,0.00,VWS V14.01,2013-08-09 02:51:00,
2013-08-08 22:56:00,70.1,68.9,30.05,SSE,167,3.0,3.0,96,0.00,,---,0.08,0.00,VWS V14.01,2013-08-09 02:56:00,
2013-08-08 23:00:00,70.1,68.9,30.04,SSE,163,0.0,4.0,96,0.00,,---,0.08,0.00,VWS V14.01,2013-08-09 03:00:00,
2013-08-08 23:01:00,70.1,68.9,30.05,SSE,167,1.0,4.0,96,0.00,,---,0.08,0.00,VWS V14.01,2013-08-09 03:01:00,
2013-08-08 23:06:00,70.1,68.9,30.05,ESE,119,0.0,2.0,96,0.00,,---,0.08,0.00,VWS V14.01,2013-08-09 03:06:00,
2013-08-08 23:11:00,70.1,68.9,30.05,NE,52,0.0,2.0,96,0.00,,---,0.08,0.00,VWS V14.01,2013-08-09 03:11:00,
2013-08-08 23:16:00,70.2,69.0,30.04,SW,217,0.0,2.0,96,0.00,,---,0.08,0.00,VWS V14.01,2013-08-09 03:16:00,
2013-08-08 23:22:00,70.2,69.0,30.05,West,261,0.0,2.0,96,0.00,,---,0.08,0.00,VWS V14.01,2013-08-09 03:22:00,
2013-08-08 23:27:00,70.2,69.0,30.04,SW,217,0.0,2.0,96,0.00,,---,0.08,0.00,VWS V14.01,2013-08-09 03:27:00,
2013-08-08 23:30:00,70.2,69.0,30.05,South,173,0.0,3.0,96,0.00,,---,0.08,0.00,VWS V14.01,2013-08-09 03:30:00,
2013-08-08 23:32:00,70.2,69.0,30.05,SSE,148,0.0,3.0,96,0.00,,---,0.08,0.00,VWS V14.01,2013-08-09 03:32:00,
2013-08-08 23:37:00,70.3,69.1,30.05,ESE,119,0.0,1.0,96,0.00,,---,0.08,0.00,VWS V14.01,2013-08-09 03:37:00,
2013-08-08 23:43:00,70.3,69.1,30.05,SSE,162,0.0,1.0,96,0.00,,---,0.08,0.00,VWS V14.01,2013-08-09 03:43:00,
2013-08-08 23:48:00,70.3,69.1,30.05,SSW,201,0.0,1.0,96,0.00,,---,0.08,0.00,VWS V14.01,2013-08-09 03:48:00,
2013-08-08 23:53:00,70.4,69.2,30.04,SSW,201,0.0,1.0,96,0.00,,---,0.08,0.00,VWS V14.01,2013-08-09 03:53:00,
2013-08-08 23:58:00,70.4,69.2,30.04,SSW,201,0.0,1.0,96,0.00,,---,0.08,0.00,VWS V14.01,2013-08-09 03:58:00,